Flag for Ukraine Weather past 2 weeks in Odesa, Ukraine

Now
64 °F

Fog.


Feels Like: 64 °F
Forecast: 62 / 78 °F
Wind: No wind

Location: Odesa Airport

Current Time: Aug 22, 2014 at 6:07:00 AM

Latest Report: Aug 22, 2014 at 5:30 AM


Visibility: 1 mi

Pressure: 29.95 "Hg

Humidity: 94%

Dew point: 63 °F

Location of OdesaLocation

Historic Weather in Odesa — Graph

°F

Odesa temperature yesterday

Maximum temperature yesterday: 81 °F (at 12:00 PM)
Minimum temperature yesterday: 63 °F (at 3:30 AM)
Average temperature yesterday: 73 °F

Past Weeks' High & Low Weather Summary

 TemperatureHumidityPressure
High93 °F (Aug 8, 1:30 PM)100% (Aug 14, 5:30 AM)30.07 "Hg (Aug 14, 5:30 AM)
Low57 °F (Aug 19, 5:00 AM)21% (Aug 7, 3:00 PM)29.71 "Hg (Aug 15, 7:00 PM)
Average77 °F58%29.90 "Hg
* Reported Aug 7 4:00 AM — Aug 22 4:30 AM, Odesa, Weather by CustomWeather, © 2014

Note: Actual official high and low records may vary slightly from our data, if they occured in-between our weather recording intervals... More about our weather records

Advertising

Odesa weather history for previous 24 hours

 ConditionsComfort  
Time TempWeatherWind HumidityBarometerVisibility
4:30 AM
Aug 22
64 °FFog.3 mph94%29.95 "Hg3 mi
4:00 AM64 °FClear.1 mph100%29.95 "Hg10 mi
3:30 AM64 °FPassing clouds.3 mph100%29.95 "HgN/A
3:00 AM66 °FThundershowers. Mostly cloudy.6 mph100%29.92 "HgN/A
2:30 AM66 °FThundershowers. Partly cloudy.3 mph100%29.92 "HgN/A
2:00 AM66 °FThunderstorms. Mostly cloudy.No wind94%29.92 "HgN/A
1:30 AM68 °FThunderstorms. Mostly cloudy.10 mph94%29.95 "HgN/A
1:00 AM73 °FThundershowers. Partly cloudy.8 mph89%29.92 "HgN/A
12:54 AM73 °FThundershowers. Partly cloudy.8 mph83%29.92 "HgN/A
12:30 AM73 °FPassing clouds.8 mph83%29.92 "HgN/A
12:00 AM73 °FClear.8 mph78%29.92 "Hg10 mi
11:30 PM
Aug 21
73 °FPassing clouds.8 mph78%29.92 "HgN/A
11:00 PM73 °FPassing clouds.10 mph78%29.95 "HgN/A
10:30 PM73 °FClear.8 mph78%29.92 "Hg10 mi
10:00 PM73 °FClear.10 mph74%29.92 "Hg10 mi
9:30 PM75 °FPassing clouds.10 mph69%29.95 "HgN/A
9:00 PM75 °FPassing clouds.10 mph69%29.95 "HgN/A
8:30 PM75 °FScattered clouds.13 mph69%29.95 "HgN/A
8:00 PM75 °FScattered clouds.15 mph69%29.92 "HgN/A
7:30 PM75 °FPassing clouds.17 mph69%29.92 "HgN/A
7:00 PM77 °FPassing clouds.17 mph65%29.95 "HgN/A
6:30 PM77 °FScattered clouds.20 mph65%29.95 "HgN/A
6:00 PM79 °FScattered clouds.20 mph61%29.95 "HgN/A
5:30 PM79 °FScattered clouds.20 mph61%29.95 "HgN/A
5:00 PM79 °FScattered clouds.17 mph58%29.95 "HgN/A
4:30 PM81 °FScattered clouds.17 mph54%29.98 "HgN/A
4:00 PM79 °FScattered clouds.17 mph58%29.98 "HgN/A
3:30 PM81 °FScattered clouds.17 mph58%29.98 "HgN/A
3:00 PM81 °FScattered clouds.15 mph54%29.98 "HgN/A
2:30 PM81 °FPartly sunny.17 mph54%30.01 "HgN/A
2:00 PM79 °FScattered clouds.17 mph58%30.01 "HgN/A
1:30 PM81 °FScattered clouds.15 mph45%30.01 "HgN/A
1:00 PM81 °FScattered clouds.15 mph45%30.01 "HgN/A
12:30 PM81 °FScattered clouds.13 mph48%30.01 "HgN/A
12:00 PM81 °FScattered clouds.13 mph51%30.01 "HgN/A
11:30 AM79 °FScattered clouds.13 mph54%30.01 "HgN/A
11:00 AM79 °FScattered clouds.10 mph54%30.01 "HgN/A
10:30 AM79 °FScattered clouds.13 mph54%30.01 "HgN/A
10:00 AM77 °FScattered clouds.6 mph54%30.01 "HgN/A
9:30 AM77 °FScattered clouds.3 mph57%30.01 "HgN/A
9:00 AM75 °FScattered clouds.No wind61%30.01 "HgN/A
8:30 AM73 °FScattered clouds.No wind65%30.01 "HgN/A
8:00 AM70 °FScattered clouds.No wind78%30.01 "HgN/A
7:30 AM68 °FScattered clouds.No wind78%30.01 "HgN/A
7:00 AM64 °FPassing clouds.No wind83%30.01 "HgN/A
6:30 AM63 °FPassing clouds.No wind83%30.01 "HgN/A
6:00 AM64 °FClear.No wind83%30.01 "Hg10 mi
Weather by CustomWeather, © 2014

See weather overviewHow to use our weather pages